[[{"header":{"parameterUnit":"m.s-1","parameterCategory":1,"la1":30.2991,"la2":30.254,"lo1":-89.0895,"lo2":-89.0444,"dy":0.0017,"dx":0.0017,"nx":28,"ny":28,"refTime":"2023-11-09T03:00:00:Z","depth":0,"parameterNumber":2,"parameterNumberName":"U-component_of_WINDS"},"data":[0,0,0,0,0,0,0,0,0,0,0,0,0,0,0,0,0,0,0,0,0,0,0,0,0,0,0,0,0,0,0,0,0,0,0,0,0,0,0,0,0,0,0,0,0,0,0,0,0,0,0,0,0,0,0,0,0,0,-2.2564,-2.2563,0,-2.2504,-2.2503,-2.2502,-2.245,-2.2449,-2.2448,-2.2448,-2.2385,-2.2384,-2.2383,0,0,0,0,0,0,0,0,0,0,0,0,0,-2.2634,-2.2633,-2.2564,-2.2563,-2.2562,-2.2504,-2.2503,-2.2502,-2.245,-2.2449,-2.2448,-2.2447,-2.2385,-2.2384,-2.2383,0,0,0,0,0,0,0,0,0,0,0,0,0,-2.2592,-2.2633,-2.2564,-2.2529,-2.2525,-2.2504,-2.2503,-2.2502,-2.245,-2.2449,-2.2448,-2.2447,-2.2386,-2.2384,-2.2383,-2.2391,0,0,-2.2378,-2.2377,0,0,0,0,0,0,0,0,-2.2594,-2.2589,-2.2535,-2.2532,-2.2527,-2.2483,-2.2505,-2.2465,-2.245,-2.2479,-2.2448,-2.2447,-2.2418,-2.2414,-2.2405,-2.2388,-2.2385,-2.2377,-2.2376,-2.2376,-2.2375,0,0,0,0,0,0,0,-2.2597,-2.2592,-2.254,-2.2534,-2.253,-2.2517,-2.251,-2.2497,-2.2454,-2.2476,-2.2472,-2.2466,-2.2416,-2.2406,-2.2403,-2.2384,-2.2377,-2.2376,-2.2375,-2.2374,-2.2373,-2.2374,0,0,0,0,0,0,-2.2606,-2.2594,-2.2542,-2.2538,-2.2559,-2.2516,-2.2508,-2.2498,-2.2454,-2.2447,-2.2466,-2.2463,-2.241,-2.2405,-2.24,-2.2408,-2.2376,-2.2374,-2.2373,-2.2372,-2.2374,-2.2375,0,0,0,0,0,0,-2.2607,-2.2601,-2.2544,-2.2565,-2.2557,-2.2516,-2.2505,-2.2498,-2.2488,-2.2447,-2.2439,-2.2464,-2.2409,-2.2403,-2.2394,-2.2405,-2.2373,-2.2372,-2.2371,-2.2373,-2.2374,-2.2424,0,0,0,0,0,0,-2.261,-2.2602,-2.2605,-2.2566,-2.2556,-2.2539,-2.2506,-2.2497,-2.2485,-2.2481,-2.2443,-2.2436,-2.2408,-2.2397,-2.2393,-2.2403,-2.2371,-2.237,-2.2372,-2.2374,-2.2421,-2.2426,-2.2431,0,0,0,0,0,-2.2612,-2.262,-2.2605,-2.2599,-2.2558,-2.254,-2.2534,-2.2502,-2.2486,-2.2489,-2.2463,-2.2437,-2.2405,-2.2396,-2.2391,-2.2401,-2.2369,-2.2371,-2.2374,-2.2418,-2.2425,-2.2431,0,0,0,0,0,0,-2.266,-2.2614,-2.2597,-2.2592,-2.2571,-2.2531,-2.2532,-2.251,-2.2491,-2.2488,-2.2448,-2.244,-2.2436,-2.2418,-2.2409,-2.2408,-2.2384,-2.2385,-2.242,-2.2426,-2.2431,-2.2436,-2.2369,0,0,0,0,0,-2.267,-2.2659,-2.262,-2.2619,-2.261,-2.2573,-2.2564,-2.2541,-2.2517,-2.2507,-2.248,-2.2458,-2.2443,-2.2433,-2.2417,-2.2418,-2.241,-2.2422,-2.2428,-2.2432,-2.2434,-2.2435,-2.2441,-2.2382,-2.2382,-2.2382,0,0,-2.2691,-2.2664,-2.2659,-2.2629,-2.2609,-2.2599,-2.2566,-2.2556,-2.2548,-2.2505,-2.2496,-2.2476,-2.2448,-2.2445,-2.2442,-2.2429,-2.2449,-2.2435,-2.2439,-2.2438,-2.2438,-2.2444,-2.2449,-2.2383,-2.2383,-2.2383,0,0,-2.2723,-2.2702,-2.27,-2.2682,-2.2653,-2.2629,-2.2629,-2.2593,-2.2579,-2.2569,-2.2538,-2.2528,-2.2503,-2.2485,-2.2472,-2.2502,-2.2478,-2.2498,-2.2525,-2.2527,-2.2532,-2.2536,-2.2547,-2.2552,-2.2499,-2.2499,-2.2499,0,-2.2752,-2.2735,-2.2702,-2.2695,-2.2683,-2.2645,-2.2644,-2.2628,-2.2595,-2.2588,-2.2574,-2.2543,-2.2522,-2.2515,-2.2522,-2.2513,-2.2513,-2.2501,-2.2534,-2.2537,-2.2541,-2.2551,-2.2556,-2.2502,-2.2502,-2.2501,-2.2501,0,-2.2773,-2.2762,-2.2764,-2.2735,-2.2724,-2.272,-2.2686,-2.2679,-2.2658,-2.2636,-2.2628,-2.2601,-2.258,-2.2577,-2.2556,-2.2568,-2.2561,-2.2541,-2.2516,-2.255,-2.2559,-2.2563,-2.2506,-2.2505,-2.2504,-2.2503,0,0,-2.2831,-2.2786,-2.2787,-2.2775,-2.2742,-2.2733,-2.2728,-2.2708,-2.2703,-2.2683,-2.2678,-2.2659,-2.2642,-2.2628,-2.2605,-2.2606,-2.2633,-2.2586,-2.2585,-2.2597,-2.2647,-2.2662,-2.2667,-2.2618,-2.2618,-2.2619,-2.2649,0,-2.2858,-2.2847,-2.2819,-2.2817,-2.2808,-2.2773,-2.2769,-2.2749,-2.273,-2.2719,-2.2697,-2.2685,-2.2662,-2.2653,-2.2654,-2.263,-2.2643,-2.2627,-2.2614,-2.2614,-2.2622,-2.2672,-2.2687,-2.2717,-2.2653,-2.2653,-2.2654,0,-2.2888,-2.2871,-2.2869,-2.2839,-2.2834,-2.2831,-2.2812,-2.2802,-2.2779,-2.2765,-2.2751,-2.2727,-2.2721,-2.2699,-2.2691,-2.2681,-2.2674,-2.2662,-2.2662,-2.266,-2.2636,-2.2671,-2.2726,-2.2731,-2.2659,-2.2659,-2.2658,0,-2.2932,-2.2909,-2.2905,-2.2895,-2.286,-2.2859,-2.2844,-2.2821,-2.2811,-2.2795,-2.2789,-2.2772,-2.2762,-2.275,-2.2722,-2.2708,-2.2718,-2.2693,-2.2707,-2.2707,-2.2709,-2.271,-2.2765,-2.2705,-2.2705,-2.2705,-2.2705,0,-2.2966,-2.2966,-2.2925,-2.2923,-2.2922,-2.289,-2.2891,-2.2873,-2.2853,-2.2847,-2.2816,-2.2812,-2.2775,-2.2766,-2.2744,-2.2742,-2.2738,-2.2727,-2.2721,-2.2729,-2.2731,-2.2724,-2.2721,-2.2706,-2.2706,-2.2705,-2.2705,0,-2.3014,-2.2987,-2.2981,-2.2949,-2.2941,-2.2942,-2.2915,-2.2912,-2.2891,-2.2885,-2.2881,-2.2849,-2.2838,-2.2809,-2.2789,-2.2774,-2.2779,-2.2767,-2.2786,-2.2783,-2.2798,-2.2798,-2.2851,-2.2857,-2.2793,-2.2794,-2.2794,0,-2.3037,-2.3037,-2.3006,-2.3,-2.2987,-2.2978,-2.2969,-2.2938,-2.293,-2.2906,-2.2907,-2.2893,-2.288,-2.2864,-2.2839,-2.2825,-2.2813,-2.2833,-2.2811,-2.282,-2.2815,-2.2815,-2.2816,-2.2838,-2.2839,-2.2839,-2.284,0,-2.3082,-2.3069,-2.3057,-2.3042,-2.3033,-2.3019,-2.3003,-2.3001,-2.2966,-2.2959,-2.2948,-2.2938,-2.292,-2.2907,-2.289,-2.2875,-2.2852,-2.2847,-2.285,-2.2859,-2.287,-2.2865,-2.28,-2.2846,-2.2845,-2.2845,-2.2845,-2.2844,-2.3119,-2.3118,-2.3096,-2.3085,-2.3071,-2.3058,-2.3054,-2.3034,-2.3024,-2.3007,-2.299,-2.2981,-2.296,-2.2935,-2.2922,-2.2915,-2.2903,-2.2906,-2.2907,-2.2908,-2.2913,-2.2872,-2.2911,-2.2911,-2.2911,-2.2911,-2.291,0,-2.3162,-2.3148,-2.3138,-2.3118,-2.311,-2.3091,-2.3073,-2.3068,-2.306,-2.3043,-2.3033,-2.3021,-2.3009,-2.2984,-2.2971,-2.297,-2.296,-2.2968,-2.2967,-2.2965,-2.2924,-2.2923,-2.2977,-2.2977,-2.2977,-2.2977,-2.2977,-2.2977,-2.3184,-2.3182,-2.3167,-2.3158,-2.3143,-2.3135,-2.3127,-2.3115,-2.3102,-2.309,-2.3081,-2.3065,-2.3046,-2.3031,-2.302,-2.3013,-2.301,-2.3022,-2.3012,-2.2974,-2.2967,-2.2961,-2.2961,-2.3021,-2.3021,-2.3053,-2.3053,-2.3054]},{"header":{"parameterUnit":"m.s-1","parameterCategory":1,"la1":30.2991,"la2":30.254,"lo1":-89.0895,"lo2":-89.0444,"dy":0.0017,"dx":0.0017,"nx":28,"ny":28,"refTime":"2023-11-09T03:00:00:Z","depth":0,"parameterNumber":3,"parameterNumberName":"V-component_of_WINDS"},"data":[0,0,0,0,0,0,0,0,0,0,0,0,0,0,0,0,0,0,0,0,0,0,0,0,0,0,0,0,0,0,0,0,0,0,0,0,0,0,0,0,0,0,0,0,0,0,0,0,0,0,0,0,0,0,0,0,0,0,0.6536,0.6535,0,0.6484,0.6484,0.6483,0.6555,0.6557,0.656,0.6562,0.6507,0.6504,0.65,0,0,0,0,0,0,0,0,0,0,0,0,0,0.6694,0.669,0.6536,0.6535,0.6534,0.6485,0.6484,0.6483,0.6554,0.6557,0.656,0.6563,0.6509,0.6504,0.65,0,0,0,0,0,0,0,0,0,0,0,0,0,0.6632,0.6689,0.6536,0.6564,0.6566,0.6485,0.6484,0.6483,0.6554,0.6557,0.6561,0.6565,0.651,0.6505,0.6499,0.6387,0,0,0.6481,0.6479,0,0,0,0,0,0,0,0,0.6635,0.6626,0.656,0.6562,0.6564,0.653,0.652,0.6451,0.6553,0.6558,0.6562,0.6567,0.6512,0.6506,0.6488,0.6384,0.6382,0.6481,0.6477,0.6475,0.6473,0,0,0,0,0,0,0,0.664,0.6629,0.6515,0.6559,0.6561,0.6579,0.6574,0.6507,0.6514,0.6558,0.6563,0.6556,0.6513,0.6493,0.6487,0.6381,0.6481,0.6476,0.6472,0.647,0.6185,0.6181,0,0,0,0,0,0,0.6641,0.6632,0.6517,0.6514,0.661,0.6573,0.6568,0.6537,0.6515,0.6515,0.6553,0.656,0.6501,0.6494,0.6486,0.6354,0.6475,0.647,0.6466,0.6189,0.6184,0.618,0,0,0,0,0,0,0.6644,0.663,0.6519,0.6574,0.6561,0.6566,0.6531,0.6534,0.6514,0.6511,0.6513,0.6531,0.6504,0.6494,0.6412,0.6353,0.6467,0.6462,0.6194,0.6188,0.6182,0.609,0,0,0,0,0,0,0.6648,0.663,0.6588,0.6573,0.6558,0.6446,0.6527,0.653,0.6504,0.6512,0.6491,0.6491,0.6506,0.642,0.6406,0.6347,0.6457,0.6199,0.6191,0.6184,0.6098,0.6081,0.6067,0,0,0,0,0,0.6653,0.6563,0.6586,0.6571,0.6505,0.6442,0.6434,0.6454,0.6499,0.6457,0.6455,0.6492,0.6362,0.6411,0.6396,0.6335,0.6203,0.6194,0.6185,0.6105,0.6085,0.6067,0,0,0,0,0,0,0.6571,0.6562,0.6586,0.6489,0.6466,0.6455,0.6401,0.6431,0.6394,0.6403,0.6428,0.6423,0.6335,0.6327,0.6381,0.6226,0.629,0.6277,0.6235,0.6215,0.62,0.6204,0.6452,0,0,0,0,0,0.6541,0.6491,0.6486,0.64,0.6388,0.6396,0.637,0.6387,0.6364,0.6354,0.6347,0.6322,0.6277,0.6245,0.6203,0.6097,0.6094,0.6048,0.6033,0.602,0.6008,0.5953,0.5933,0.6149,0.6149,0.615,0,0,0.6479,0.6469,0.6435,0.6383,0.6368,0.6315,0.6388,0.6329,0.629,0.6345,0.6268,0.6261,0.6236,0.6142,0.61,0.6132,0.5948,0.6008,0.5998,0.5993,0.5942,0.5921,0.5903,0.6143,0.6144,0.6145,0,0,0.6341,0.6327,0.6255,0.6238,0.6214,0.622,0.6203,0.6187,0.6186,0.6108,0.6149,0.6103,0.6023,0.6004,0.5983,0.5839,0.5872,0.5824,0.5742,0.5688,0.5671,0.5656,0.5605,0.5587,0.5813,0.5812,0.5812,0,0.6267,0.619,0.6214,0.6152,0.6129,0.6177,0.6105,0.6087,0.6049,0.6032,0.6068,0.597,0.5956,0.5859,0.5824,0.5806,0.5787,0.5826,0.5672,0.5657,0.5644,0.5595,0.5576,0.5807,0.5808,0.5808,0.5809,0,0.6101,0.6047,0.5991,0.5955,0.5926,0.5858,0.5872,0.5839,0.5859,0.5862,0.5783,0.5769,0.5725,0.5703,0.5721,0.5608,0.5629,0.5668,0.5733,0.5617,0.5572,0.5554,0.5799,0.5801,0.5803,0.5804,0,0,0.5907,0.5887,0.5866,0.5851,0.5828,0.5787,0.5723,0.5681,0.5652,0.5625,0.5572,0.5503,0.554,0.5517,0.5534,0.5486,0.5374,0.5531,0.5531,0.5503,0.525,0.5221,0.5199,0.5395,0.5392,0.5389,0.5252,0,0.5769,0.5659,0.5679,0.5571,0.5522,0.5569,0.5513,0.5493,0.5494,0.5452,0.5453,0.5405,0.5456,0.5443,0.5398,0.5397,0.5323,0.5407,0.5346,0.5344,0.5352,0.5175,0.5144,0.5015,0.5235,0.5232,0.5229,0,0.5593,0.5561,0.5449,0.5436,0.5416,0.5365,0.5329,0.5288,0.5267,0.5271,0.5246,0.5272,0.5208,0.5274,0.5187,0.5243,0.522,0.5216,0.5211,0.5206,0.528,0.5166,0.4975,0.4955,0.5202,0.5204,0.5206,0,0.5465,0.5393,0.5317,0.5303,0.5285,0.5248,0.5239,0.5222,0.5196,0.5164,0.5147,0.5108,0.5086,0.5055,0.507,0.5116,0.498,0.5047,0.4982,0.4981,0.4951,0.4953,0.4753,0.4935,0.4935,0.4935,0.4936,0,0.5309,0.5238,0.5259,0.5212,0.5135,0.5159,0.5082,0.5078,0.5063,0.5016,0.5053,0.5008,0.5031,0.4987,0.4999,0.4925,0.4915,0.4916,0.492,0.4913,0.4913,0.4898,0.4908,0.493,0.4931,0.4932,0.4933,0,0.5152,0.5163,0.5084,0.5074,0.507,0.5013,0.5005,0.4961,0.4966,0.4906,0.4894,0.49,0.4851,0.4863,0.481,0.4818,0.4725,0.474,0.4732,0.4736,0.4671,0.4677,0.4455,0.4428,0.4626,0.4624,0.4623,0,0.5052,0.4999,0.4984,0.4956,0.4945,0.4898,0.4872,0.4894,0.4865,0.4838,0.4797,0.4752,0.4718,0.4638,0.4638,0.4597,0.4612,0.4537,0.4606,0.4601,0.4611,0.4615,0.461,0.4523,0.4521,0.4519,0.4517,0,0.4874,0.4882,0.4844,0.4807,0.4775,0.4747,0.4722,0.4697,0.4717,0.4682,0.4634,0.4607,0.4553,0.4508,0.4471,0.4462,0.4492,0.4496,0.4479,0.4471,0.4469,0.447,0.4696,0.4501,0.4502,0.4504,0.4504,0.4505,0.4743,0.4699,0.4682,0.4638,0.4622,0.4598,0.4557,0.4557,0.4517,0.4475,0.449,0.4435,0.4416,0.437,0.4356,0.4313,0.4341,0.4316,0.431,0.4303,0.4296,0.4476,0.4306,0.4306,0.4307,0.4307,0.4308,0,0.4567,0.4559,0.4518,0.4483,0.4449,0.4482,0.4456,0.4425,0.4376,0.4356,0.4321,0.4266,0.4223,0.422,0.4179,0.4145,0.4158,0.4134,0.4137,0.4134,0.4272,0.4291,0.4124,0.4124,0.4124,0.4124,0.4124,0.4124,0.4472,0.4399,0.4406,0.4326,0.4318,0.4264,0.4247,0.4226,0.421,0.4147,0.4111,0.411,0.4097,0.4056,0.4018,0.4018,0.4002,0.3972,0.3977,0.4106,0.4124,0.4142,0.416,0.3968,0.3968,0.3843,0.3842,0.3841]}]]